Location: Rounton
(54.4000°N, 1.3500°W)
Time: 12:49:50
(UTC+00:00)

Transit 2A Rocket - Pass Details

Date: 03 December 2021
Orbit: 584 x 918 km, 66.7° (Epoch: 17 January)

Event Time Altitude Azimuth Distance (km) Brightness Sun altitude
Rises 17:23:53 0° 315° (NW) 3,567 8.8 -13.5°
Reaches altitude 10° 17:26:50 10° 303° (WNW) 2,610 8.3 -13.9°
Maximum altitude 17:31:42 26° 250° (WSW) 1,701 7.7 -14.6°
Drops below altitude 10° 17:36:22 10° 197° (SSW) 2,494 8.1 -15.2°
Sets 17:39:08 0° 184° (S) 3,377 8.6 -15.6°
